Location: Kaarina
(60.4167°N, 22.4167°E)
Time: 08:43:09
(UTC+03:00)

Cosmos 1666 - Pass Details

Date: 24 August 2019
Orbit: 497 x 523 km, 82.5° (Epoch: 20 September)

Event Time Altitude Azimuth Distance (km) Brightness Sun altitude
Exits shadow 22:57:55 - 192° (SSW) 1,951 5.3 -12.3°
Reaches altitude 10° 22:58:24 10° 192° (SSW) 1,749 5.0 -12.3°
Maximum altitude 23:02:15 89° 105° (ESE) 524 2.6 -12.6°
Drops below altitude 10° 23:06:05 10° 15° (NNE) 1,748 5.9 -12.9°
Sets 23:08:13 0° 15° (NNE) 2,634 6.9 -13.1°
